Wind_Speed
27 27 27 27 27 28 29 29 29 30 30 31 31 31 31 31 31 31 31 31 31 31 32 32 33 33 34 34 35 36 36 36 36 36 36 36 37 36 36 36 36 36 36
28 28 29 29 29 30 30 30 30 31 32 32 32 32 32 32 32 32 33 33 33 34 34 35 35 36 36 37 37 37 37 37 38 38 38 38 38 39 39 39 39 39 38
29 29 29 30 31 31 31 32 32 32 33 33 33 33 33 33 33 34 34 35 35 35 36 36 37 38 38 38 38 38 38 38 39 39 39 40 40 40 40 40 40 40 40
30 30 30 31 32 32 32 32 33 33 33 33 33 33 33 34 34 35 35 35 36 36 37 37 38 38 39 39 40 40 40 40 41 41 41 41 41 41 42 42 41 41 41
30 30 31 32 32 33 33 33 33 33 32 33 33 34 34 34 35 36 36 37 37 38 38 38 38 39 40 40 40 40 41 42 43 43 43 43 42 42 43 43 43 43 42
31 31 32 32 32 32 33 33 33 33 33 33 33 34 34 35 36 36 37 37 38 39 39 39 40 40 41 41 41 41 43 43 44 45 45 45 44 44 44 45 45 44 44
33 33 33 34 33 33 33 33 33 33 34 34 34 35 35 36 36 36 37 37 38 38 39 40 40 40 41 41 41 42 43 44 44 45 45 46 46 46 46 47 46 45 45
35 35 34 34 34 34 34 34 34 35 34 34 35 35 36 36 37 37 37 38 38 38 39 39 39 39 40 40 41 42 43 44 44 45 45 46 47 48 48 48 47 46 46
36 36 35 35 35 35 35 35 35 36 36 36 36 36 37 37 38 38 38 38 39 39 39 40 40 40 41 41 42 42 43 44 44 44 45 46 46 48 49 49 49 48 48
36 36 36 36 36 36 36 36 36 36 37 37 38 38 38 38 38 38 39 39 40 40 41 41 41 41 42 43 43 43 44 45 46 46 46 46 47 48 48 49 49 49 48
36 35 36 36 37 37 37 37 38 38 38 39 39 39 38 38 38 38 38 39 40 40 41 42 42 43 43 44 44 45 46 46 47 48 48 47 47 48 49 50 50 49 48
38 37 35 35 36 37 38 38 38 39 39 38 38 38 38 38 39 39 40 40 40 41 42 43 43 44 44 44 45 45 46 47 47 47 48 48 49 49 50 51 51 50 51
37 38 38 37 37 37 38 38 38 38 39 39 39 40 40 40 41 41 41 41 41 42 42 42 42 42 43 43 44 44 45 46 47 48 48 49 49 50 50 51 51 51 51
38 38 39 40 39 39 38 38 39 39 40 40 41 41 41 42 42 42 42 42 42 42 42 43 42 42 42 43 43 44 44 45 47 48 48 49 49 49 50 50 51 51 51
39 39 39 40 40 41 40 39 39 40 41 42 42 42 42 42 42 42 42 42 42 42 42 43 44 44 44 44 45 45 45 46 47 47 47 47 47 48 48 49 50 51 53
39 40 40 40 41 42 42 42 42 41 42 42 42 42 43 43 43 43 43 43 43 43 43 44 45 45 46 45 45 46 46 46 47 47 47 47 47 48 48 49 51 52 53
40 40 41 41 42 43 43 44 44 44 43 43 43 44 44 44 44 44 44 45 45 45 45 45 46 47 47 47 47 48 48 47 48 48 48 48 48 48 49 49 50 51 52
42 42 43 43 43 44 44 44 44 44 44 44 44 45 45 46 46 45 46 46 46 46 47 47 47 48 48 48 49 49 50 49 49 49 49 49 48 48 49 49 50 50 51
44 44 44 44 44 44 44 44 45 45 45 45 46 46 46 46 46 46 46 46 47 47 47 48 48 49 48 49 50 51 52 52 52 51 50 50 49 50 50 50 51 51 52
43 43 43 44 44 45 45 46 46 46 46 46 47 47 47 47 47 47 47 47 48 48 49 49 49 49 49 50 51 51 51 52 52 52 51 50 50 51 51 51 51 52 52
43 43 44 44 44 45 46 47 47 47 46 47 47 47 48 48 48 48 49 49 49 49 50 50 50 50 50 51 51 50 50 51 51 51 50 51 51 50 50 50 50 51 53
44 44 45 46 46 46 46 46 47 46 47 47 47 47 48 48 48 49 49 49 50 50 50 50 50 50 51 51 51 51 50 50 49 49 50 50 51 51 51 51 52 53 54
44 45 45 46 46 46 46 46 46 46 47 47 48 48 48 48 48 49 49 50 50 49 49 49 50 50 50 51 51 51 51 50 49 50 50 49 50 51 51 52 53 53 53
43 44 44 45 45 45 45 45 46 46 47 47 48 48 48 48 49 49 49 49 49 49 49 49 50 50 50 50 50 50 50 50 50 50 50 49 50 51 51 53 54 55 55
43 43 44 44 44 44 45 45 46 46 47 47 47 48 48 48 48 49 49 49 49 49 49 49 49 49 49 49 50 50 49 50 50 50 50 50 50 50 50 52 53 54 54
43 44 44 44 45 45 45 45 46 46 47 47 47 48 48 48 48 49 49 48 48 48 48 48 48 48 48 48 48 49 49 49 49 49 50 50 50 49 49 49 51 52 53
Wind_Direction
270 271 273 275 276 278 280 281 281 280 280 280 280 280 280 280 280 280 280 279 278 278 279 279 278 279 280 280 278 277 277 276 276 277 277 276 276 275 275 275 275 275 274
270 272 273 274 276 278 280 281 281 281 281 281 280 280 280 279 279 280 279 278 277 278 279 278 278 278 279 279 278 277 276 275 275 276 276 276 276 275 274 274 274 274 274
271 272 272 274 276 279 280 281 281 281 282 281 280 279 280 280 280 280 279 279 278 278 279 279 278 278 279 278 278 277 276 276 275 276 276 276 276 276 275 274 274 273 273
272 272 274 276 277 278 279 281 281 281 281 280 280 280 280 281 281 281 281 280 280 280 280 280 279 279 279 278 277 277 276 275 275 275 275 275 276 275 275 274 274 274 273
273 274 276 277 279 279 280 280 281 281 281 281 281 281 281 281 282 281 281 281 281 281 280 280 280 279 279 278 277 276 276 276 275 275 275 275 275 274 274 273 272 273 272
273 275 276 278 279 280 280 281 281 280 281 281 281 282 282 283 283 283 282 282 282 282 282 281 280 279 279 279 278 276 276 275 275 274 274 273 273 273 273 272 272 272 270
272 274 276 277 277 278 279 280 281 281 280 280 281 282 282 283 283 283 283 283 283 283 282 282 281 281 279 279 278 277 276 275 275 274 273 273 272 272 271 270 270 270 271
273 273 275 276 276 276 277 278 279 279 281 282 283 282 283 284 284 284 283 283 283 283 283 282 282 282 281 280 280 279 277 276 275 274 274 273 271 270 270 270 269 270 270
273 273 274 274 275 275 276 277 278 279 281 282 283 283 283 283 284 285 284 284 284 283 283 282 282 282 282 281 281 280 278 277 276 275 274 274 272 271 270 269 268 269 269
272 272 273 273 274 275 276 276 278 279 280 282 283 283 283 284 284 283 284 284 283 283 283 282 281 281 280 280 280 280 280 279 277 276 275 274 272 271 270 269 269 269 269
272 272 272 273 274 275 276 276 277 278 280 282 284 285 284 286 286 285 284 284 284 283 282 282 281 281 281 281 281 281 280 279 278 277 276 274 273 271 270 269 269 268 268
272 273 273 274 275 275 276 277 277 278 280 282 284 284 285 286 287 286 284 284 283 284 283 283 282 282 282 281 282 282 282 281 279 278 277 276 274 273 270 269 268 267 266
273 273 274 274 275 276 276 277 277 278 280 281 283 284 285 286 287 287 286 285 284 284 284 284 283 283 283 283 282 283 283 282 280 278 277 276 275 274 271 269 267 266 266
273 274 275 275 275 276 277 277 277 278 280 281 282 283 284 286 286 286 286 286 285 285 284 284 284 284 285 285 284 284 285 284 282 280 278 276 276 275 272 270 267 265 264
273 273 274 275 275 276 277 278 278 279 280 281 282 283 284 286 287 287 287 286 286 285 284 284 284 285 284 285 286 286 286 285 285 282 280 278 276 274 273 270 269 267 266
273 273 274 275 276 276 277 277 278 279 280 281 282 283 285 285 286 287 286 286 285 285 284 284 285 284 284 285 286 285 285 285 286 284 282 281 278 276 274 272 271 270 268
272 273 274 275 275 276 276 278 279 280 281 281 282 283 284 286 286 286 285 285 285 285 285 285 285 285 285 285 285 285 284 285 285 284 283 281 278 276 274 273 273 271 269
272 273 274 275 275 276 277 278 279 280 281 282 283 284 284 285 285 285 285 285 285 285 286 286 286 286 286 286 285 285 285 285 286 285 283 281 278 277 275 273 272 272 270
273 274 275 275 276 276 277 278 279 280 280 281 282 284 285 285 285 286 286 285 285 286 286 286 286 286 286 287 286 285 285 285 286 285 283 280 278 277 276 274 272 271 270
274 274 275 276 276 277 277 278 279 279 280 281 282 283 284 285 286 286 287 286 286 286 286 287 287 287 286 288 288 287 286 286 285 284 282 280 279 277 277 276 275 272 271
275 275 275 276 277 277 278 278 278 279 279 281 282 283 284 285 286 286 287 287 287 286 287 287 287 288 288 288 289 289 288 286 285 283 282 281 279 277 276 276 276 274 273
277 276 276 277 277 278 278 279 279 279 280 281 283 284 285 286 286 286 286 287 287 287 287 287 288 289 289 288 289 288 288 286 285 283 282 281 279 278 277 276 276 275 275
278 278 277 277 278 278 278 278 278 279 280 281 282 284 285 286 286 286 287 287 287 287 287 288 288 289 289 288 288 287 287 286 285 284 283 281 281 280 278 277 276 276 276
279 279 279 278 279 279 278 278 279 279 280 281 283 284 285 285 286 287 287 287 287 288 288 289 289 289 289 289 289 288 287 286 285 285 284 284 283 282 279 278 278 278 278
280 279 279 279 279 279 279 279 279 280 280 282 283 284 285 285 286 287 287 287 287 288 289 289 289 289 289 289 290 289 287 286 286 286 286 286 285 284 282 281 279 279 278
280 280 279 279 279 279 280 280 280 281 281 282 283 283 284 285 286 287 289 289 288 289 290 290 290 291 291 291 291 290 289 288 287 287 286 287 287 285 284 282 281 280 279
Height
5837 5836 5836 5836 5835 5834 5833 5832 5831 5830 5829 5828 5827 5826 5825 5824 5823 5821 5820 5819 5818 5817 5816 5815 5815 5814 5813 5812 5811 5810 5809 5809 5808 5807 5807 5806 5805 5805 5804 5804 5803 5803 5802
5831 5830 5830 5829 5829 5828 5827 5825 5824 5823 5822 5821 5820 5819 5818 5817 5816 5814 5813 5812 5811 5810 5809 5808 5807 5806 5805 5804 5803 5802 5801 5800 5800 5799 5798 5797 5797 5796 5796 5795 5795 5794 5794
5824 5824 5823 5823 5822 5821 5820 5819 5817 5816 5815 5814 5813 5812 5810 5809 5808 5807 5805 5804 5803 5802 5801 5800 5799 5798 5796 5795 5794 5793 5792 5792 5791 5790 5790 5789 5788 5788 5787 5786 5786 5786 5785
5817 5817 5817 5816 5815 5814 5813 5812 5811 5809 5808 5807 5805 5804 5803 5802 5800 5799 5797 5796 5795 5794 5792 5791 5790 5789 5787 5786 5785 5784 5783 5782 5782 5781 5780 5780 5779 5778 5777 5777 5777 5776 5776
5810 5810 5810 5809 5808 5807 5806 5805 5803 5802 5801 5799 5798 5796 5795 5794 5792 5790 5789 5788 5786 5785 5783 5782 5781 5780 5778 5777 5776 5775 5774 5773 5772 5771 5770 5770 5769 5768 5768 5767 5767 5767 5767
5803 5803 5802 5802 5801 5800 5798 5797 5796 5794 5793 5792 5790 5789 5787 5786 5784 5782 5780 5779 5777 5776 5774 5773 5771 5770 5769 5767 5766 5765 5763 5762 5761 5761 5760 5759 5758 5758 5757 5757 5756 5756 5756
5796 5795 5795 5794 5793 5792 5791 5790 5788 5787 5785 5784 5782 5781 5779 5777 5775 5773 5771 5770 5768 5767 5765 5763 5762 5760 5759 5757 5756 5754 5753 5752 5751 5750 5749 5748 5747 5747 5746 5746 5745 5745 5745
5788 5787 5787 5786 5785 5784 5783 5782 5780 5779 5777 5775 5774 5772 5771 5770 5767 5765 5763 5761 5759 5757 5756 5754 5752 5750 5749 5747 5746 5744 5742 5741 5739 5738 5737 5736 5736 5735 5734 5734 5734 5734 5734
5779 5779 5778 5777 5776 5775 5774 5773 5772 5771 5769 5767 5766 5764 5763 5761 5758 5756 5754 5751 5749 5748 5746 5744 5742 5741 5739 5737 5735 5733 5731 5729 5727 5726 5725 5724 5724 5723 5722 5722 5722 5722 5722
5771 5770 5770 5769 5768 5767 5766 5765 5763 5762 5760 5759 5757 5755 5753 5751 5750 5748 5745 5742 5740 5738 5736 5734 5732 5730 5728 5726 5724 5722 5720 5718 5716 5715 5713 5712 5711 5710 5709 5709 5709 5709 5710
5762 5761 5760 5760 5759 5758 5757 5756 5754 5753 5751 5750 5748 5746 5744 5742 5739 5738 5736 5733 5730 5727 5725 5723 5721 5719 5717 5715 5713 5711 5709 5707 5704 5702 5701 5700 5698 5698 5697 5696 5697 5697 5697
5753 5752 5752 5751 5750 5749 5747 5746 5745 5744 5742 5740 5738 5736 5734 5732 5730 5727 5725 5723 5720 5717 5714 5712 5710 5708 5705 5703 5701 5699 5696 5694 5691 5689 5688 5686 5685 5684 5684 5683 5683 5683 5683
5744 5743 5743 5742 5741 5739 5738 5737 5736 5734 5732 5731 5729 5727 5724 5722 5720 5717 5715 5712 5710 5707 5704 5701 5699 5696 5694 5691 5689 5686 5683 5681 5678 5676 5674 5673 5672 5670 5669 5669 5669 5669 5669
5735 5734 5733 5732 5731 5730 5729 5727 5726 5724 5723 5721 5719 5717 5714 5712 5709 5706 5704 5701 5699 5696 5693 5690 5688 5685 5683 5680 5677 5674 5671 5668 5665 5662 5661 5659 5658 5656 5655 5655 5655 5654 5654
5725 5724 5723 5722 5721 5720 5719 5717 5716 5714 5712 5710 5708 5706 5704 5701 5698 5696 5693 5690 5688 5685 5682 5679 5676 5674 5671 5668 5665 5662 5659 5655 5652 5649 5647 5645 5644 5643 5641 5640 5640 5639 5639
5715 5714 5713 5712 5711 5710 5708 5707 5706 5704 5702 5700 5697 5695 5693 5690 5687 5684 5681 5679 5676 5674 5671 5668 5665 5662 5659 5656 5653 5649 5646 5643 5639 5636 5634 5632 5630 5629 5627 5626 5625 5625 5625
5705 5704 5703 5702 5700 5699 5697 5696 5694 5692 5691 5688 5686 5684 5681 5679 5676 5673 5670 5667 5664 5662 5659 5656 5653 5650 5647 5643 5640 5637 5633 5630 5627 5623 5621 5618 5616 5615 5613 5612 5610 5610 5609
5694 5693 5692 5691 5689 5688 5686 5684 5683 5680 5679 5676 5674 5672 5669 5666 5664 5661 5658 5655 5652 5649 5646 5644 5640 5637 5633 5630 5627 5623 5620 5616 5613 5610 5607 5604 5602 5600 5599 5597 5596 5595 5594
5683 5682 5680 5679 5677 5676 5674 5672 5670 5668 5666 5664 5662 5659 5657 5654 5651 5648 5645 5642 5639 5636 5633 5630 5627 5623 5620 5616 5613 5609 5606 5602 5599 5595 5592 5590 5587 5585 5584 5582 5581 5580 5579
5672 5670 5669 5667 5665 5664 5662 5660 5658 5656 5654 5651 5649 5647 5644 5641 5638 5635 5632 5629 5626 5623 5619 5616 5613 5609 5606 5602 5599 5595 5591 5587 5584 5580 5577 5575 5572 5570 5568 5567 5565 5564 5563
5660 5658 5657 5655 5653 5651 5649 5647 5645 5643 5641 5639 5636 5634 5631 5628 5625 5622 5619 5616 5612 5609 5606 5602 5599 5595 5592 5588 5584 5580 5576 5572 5568 5565 5562 5559 5557 5555 5552 5551 5548 5547 5546
5648 5646 5644 5643 5641 5638 5636 5634 5632 5630 5628 5626 5623 5620 5618 5615 5612 5608 5605 5602 5599 5595 5592 5588 5585 5581 5577 5573 5570 5565 5561 5558 5554 5551 5547 5544 5540 5538 5536 5534 5532 5531 5529
5636 5634 5632 5630 5628 5625 5623 5621 5619 5617 5615 5613 5610 5607 5604 5601 5598 5595 5591 5588 5584 5581 5578 5574 5571 5567 5563 5559 5555 5551 5546 5542 5539 5534 5531 5529 5525 5522 5520 5517 5515 5513 5512
5624 5621 5619 5617 5615 5613 5610 5608 5606 5604 5602 5599 5597 5594 5591 5588 5584 5581 5578 5574 5570 5567 5564 5560 5557 5552 5548 5544 5540 5536 5532 5528 5524 5519 5516 5514 5510 5507 5504 5500 5497 5495 5494
5611 5609 5607 5605 5602 5600 5597 5595 5593 5591 5589 5586 5583 5581 5578 5575 5571 5568 5565 5561 5557 5553 5549 5546 5542 5538 5533 5529 5525 5521 5517 5513 5510 5505 5501 5498 5495 5491 5488 5484 5480 5477 5476
5599 5597 5595 5592 5590 5587 5585 5582 5580 5578 5576 5573 5570 5567 5564 5561 5558 5554 5551 5547 5544 5540 5536 5532 5528 5524 5520 5515 5511 5507 5503 5498 5494 5491 5486 5483 5479 5475 5473 5469 5464 5461 5458